Location: Dos Hermanos
(10.5622°N, 67.1667°W)
Time: 20:03:46
(UTC+00:00)

Daily predictions for brighter satellites

Satellite Brightness Start Highest point End
(mag) Time Altitude Azimuth Time Altitude Azimuth Time Altitude Azimuth
Ariane V96 H10-3 4.4 22:10:41 10° WSW 22:13:17 34° S 22:20:17 10° ESE
DNEPR-1 R/B 4.3 22:13:50 10° NNW 22:19:15 71° ENE 22:25:53 10° SSE
Thor Agena Rocket 4.0 22:14:32 10° S 22:19:44 70° WSW 22:24:58 10° NNW
NATO 3D Rocket 4.3 22:19:13 10° W 22:24:57 68° NNW 22:33:15 10° ENE
SAR-Lupe-4 3.6 22:23:06 10° S 22:26:40 87° WSW 22:30:14 10° NNW
Cosmos 1455 Rocket 4.1 22:23:31 10° SE 22:26:56 23° E 22:30:21 10° NE
COSMO-SKYMED 1 2.4 22:22:58 10° NNE 22:27:03 69° ESE 22:31:08 10° S
Centaur D-1AR AC-39 3.3 22:24:44 10° SSW 22:27:44 21° SSE 22:30:45 10° ESE
Cosmos 2058 3.4 22:26:50 10° NNE 22:30:27 34° E 22:34:05 10° SSE
CZ-2D R/B 2.7 22:27:29 10° S 22:30:38 85° W 22:33:46 10° NNW
AQUARIUS 4.2 22:26:42 10° SSE 22:31:02 57° ENE 22:35:19 10° N
Cosmos 1602 3.8 22:28:52 10° NNE 22:31:39 33° E 22:34:26 10° SSE
MOS 1 Rocket 3.4 22:28:36 10° SSE 22:32:35 41° ENE 22:36:37 10° N
Meteor 2-12 Rocket 4.4 22:26:38 10° N 22:32:41 86° E 22:38:43 10° S
CAT/Thesee 2.7 22:30:22 10° W 22:32:57 67° S 22:34:50 11° E
Cosmos 1850 Rocket 4.1 22:32:41 10° S 22:37:48 53° ESE 22:42:52 10° NNE
GPS 2-17 Rocket1 3.7 22:34:02 10° SW 22:38:22 45° SSE 22:42:21 12° E
ARIANE 5 R/B 2.7 22:35:49 10° S 22:40:47 74° WSW 22:45:44 10° NNW
Meteor 2-1 Rocket 4.3 22:41:56 10° S 22:47:44 89° E 22:53:38 10° N
Cosmos 2369 Rocket 2.1 22:42:15 10° SSW 22:47:48 79° ESE 22:53:23 10° NNE
Okean 1 Rocket 3.7 22:43:33 10° SSW 22:47:55 60° W 22:52:15 10° N
Cosmos 1862 3.4 22:45:51 10° NNE 22:49:17 41° E 22:52:44 10° SSE
Cosmos 2297 3.7 22:43:58 10° SSW 22:49:41 80° ESE 22:55:23 10° NNE
Ariane 3 Deb 4.4 22:50:22 10° SSW 22:52:57 20° SSE 22:56:51 10° ESE
Cosmos 1634 Rocket 4.2 22:47:17 10° SSE 22:53:18 48° E 22:59:16 10° NNE
Cosmos 2082 Rocket 3.0 22:50:21 10° NNE 22:55:01 27° ENE 22:59:42 10° SE
Ariane H10+ 3.6 22:50:00 10° W 22:56:20 41° SSW 22:58:40 13° ESE
Cosmos 468 Rocket 4.3 22:53:53 10° N 22:58:40 40° ENE 23:03:26 10° SE
Cosmos 2228 3.9 22:55:37 10° SSE 22:59:01 25° E 22:59:52 23° ENE
ATLAS 5 CENTAUR R/B 2.7 22:57:42 10° NNW 23:03:27 75° WSW 23:10:14 10° SSE
YAOGAN 1 2.7 23:00:50 10° SSE 23:04:53 45° ENE 23:08:56 10° N
Cosmos 1315 Rocket 3.5 23:03:59 10° SSE 23:07:11 29° E 23:07:11 29° E
USA 215 4.2 23:06:07 22° ENE 23:07:30 23° NE 23:12:24 10° N
Iridium 51 3.3 23:08:25 10° S 23:11:15 87° E 23:12:31 30° N
Cosmos 292 Rocket 4.0 23:08:15 10° S 23:12:46 45° ESE 23:14:36 30° NE
ATLAS 2A CENTAUR R/B 4.5 23:02:23 10° W 23:14:54 26° NNW 23:18:43 14° NNE
SPOT 1/Viking Rocket 3.5 23:11:53 10° S 23:17:01 83° WSW 23:22:11 10° NNW
SL-19 R/B 4.1 23:11:58 10° SSE 23:17:13 57° ENE 23:22:18 10° N
Resurs 1-3 3.4 23:15:35 10° SSE 23:19:51 71° ENE 23:24:07 10° N
Ariane H10-3 2.6 23:17:30 10° WSW 23:19:55 48° S 23:21:13 32° ESE
Yuri Rocket 3.2 23:16:21 10° WSW 23:21:46 74° SSE 23:23:06 45° E
Cosmos 1356 Rocket 3.2 23:20:44 10° S 23:24:26 57° E 23:24:26 57° E
Tiangong 0.9 23:22:38 10° W 23:24:44 16° SW 23:26:51 10° S
GPS 2-15 Rocket1 4.4 23:22:51 10° NW 23:26:46 25° N 23:27:10 25° N
Spot 4 Rocket 4.0 23:22:06 10° S 23:27:12 84° WSW 23:32:17 10° NNW
RESURS DK-1 3.3 23:27:29 10° NNW 23:31:17 45° WSW 23:35:05 10° S
SWIFT 4.1 23:31:24 10° SSW 23:33:05 16° S 23:33:05 16° S
Cosmos 2279 Rocket 3.8 23:32:10 10° S 23:38:21 84° E 23:43:07 18° N
Delta 2 Rocket 4.1 23:36:36 10° WNW 23:40:25 44° SW 23:41:14 38° S
Cosmos 1092 Rocket 3.8 23:35:38 10° N 23:41:44 66° E 23:47:48 10° SSE
Ariane H10+ 4.0 23:34:19 10° WSW 23:42:12 24° SSW 23:43:54 19° SSE
Cosmos 2026 Rocket 3.8 23:40:12 10° N 23:46:21 87° E 23:52:37 10° S
